timestamp,surface_pressure_avg,surface_temp_avg,battery_voltage,lat,long
2019-09-11 00:00:00+00:00,291.178,15.5,12.97,47.84626,-54.09684
2019-09-11 00:10:00+00:00,286.0997,15.5,12.89,47.84626,-54.09684
2019-09-11 00:20:00+00:00,277.523,15.5,12.97,47.84626,-54.09684
2019-09-11 00:30:00+00:00,268.6714,15.5,12.97,47.84626,-54.09684
2019-09-11 00:40:00+00:00,264.6648,15.5,12.97,47.84626,-54.09684
2019-09-11 00:50:00+00:00,257.9531,15.5,12.97,47.84626,-54.09684
2019-09-11 01:00:00+00:00,250.5931,15.5,12.89,47.84626,-54.09684
2019-09-11 01:10:00+00:00,244.2831,15.5,12.81,47.84626,-54.09684
2019-09-11 01:20:00+00:00,243.3047,15.5,12.97,47.84626,-54.09684
2019-09-11 01:30:00+00:00,239.1598,15.5,12.97,47.84626,-54.09684
2019-09-11 01:40:00+00:00,232.2298,15.51,12.97,47.84626,-54.09684
2019-09-11 01:50:00+00:00,227.3165,15.53,12.97,47.84626,-54.09684
2019-09-11 02:00:00+00:00,226.8948,15.56,12.89,47.84626,-54.09684
2019-09-11 02:10:00+00:00,221.9481,15.57,12.81,47.84626,-54.09684
2019-09-11 02:20:00+00:00,214.7081,15.58,12.97,47.84626,-54.09684
2019-09-11 02:30:00+00:00,211.4765,15.57,12.97,47.84626,-54.09684
2019-09-11 02:40:00+00:00,210.4848,15.58,12.97,47.84626,-54.09684
2019-09-11 02:50:00+00:00,207.6048,15.59,12.97,47.84626,-54.09684
2019-09-11 03:00:00+00:00,204.3748,15.58,12.89,47.84626,-54.09684
2019-09-11 03:10:00+00:00,202.4181,15.56,12.81,47.84626,-54.09684
2019-09-11 03:20:00+00:00,201.4182,15.53,12.89,47.84626,-54.09684
2019-09-11 03:30:00+00:00,199.2164,15.5,12.89,47.84626,-54.09684
2019-09-11 03:40:00+00:00,197.2014,15.5,12.97,47.84626,-54.09684
2019-09-11 03:50:00+00:00,196.8881,15.5,12.97,47.84626,-54.09684
2019-09-11 04:00:00+00:00,195.4415,15.5,12.89,47.84626,-54.09684
2019-09-11 04:10:00+00:00,194.3365,15.5,12.81,47.84626,-54.09684
2019-09-11 04:20:00+00:00,195.1431,15.5,12.89,47.84626,-54.09684
2019-09-11 04:30:00+00:00,196.3065,15.5,12.89,47.84626,-54.09684
2019-09-11 04:40:00+00:00,197.3948,15.5,12.97,47.84626,-54.09684
2019-09-11 04:50:00+00:00,198.3382,15.49,12.97,47.84626,-54.09684
2019-09-11 05:00:00+00:00,198.5664,15.46,12.89,47.84626,-54.09684
2019-09-11 05:10:00+00:00,200.5831,15.44,12.81,47.84626,-54.09684
2019-09-11 05:20:00+00:00,203.4031,15.41,12.89,47.84626,-54.09684
2019-09-11 05:30:00+00:00,205.6415,15.4,12.89,47.84626,-54.09684
2019-09-11 05:40:00+00:00,208.9464,15.4,12.89,47.84626,-54.09684
2019-09-11 05:50:00+00:00,212.9481,15.4,12.89,47.84626,-54.09684
2019-09-11 06:00:00+00:00,218.5914,15.4,12.81,47.84626,-54.09684
2019-09-11 06:10:00+00:00,223.9331,15.4,12.81,47.84626,-54.09684
2019-09-11 06:20:00+00:00,229.6297,15.4,12.89,47.84626,-54.09684
2019-09-11 06:30:00+00:00,234.7897,15.4,12.89,47.84626,-54.09684
2019-09-11 06:40:00+00:00,238.5147,15.39,12.89,47.84626,-54.09684
2019-09-11 06:50:00+00:00,241.3714,15.34,12.89,47.84626,-54.09684
2019-09-11 07:00:00+00:00,245.7898,15.32,12.81,47.84626,-54.09684
2019-09-11 07:10:00+00:00,253.9847,15.38,12.73,47.84626,-54.09684
2019-09-11 07:20:00+00:00,259.0398,15.4,12.81,47.84626,-54.09684
2019-09-11 07:30:00+00:00,260.1597,15.4,12.81,47.84626,-54.09684
2019-09-11 07:40:00+00:00,266.7014,15.4,12.89,47.84626,-54.09684
2019-09-11 07:50:00+00:00,275.5164,15.4,12.89,47.84626,-54.09684
2019-09-11 08:00:00+00:00,278.4797,15.42,12.81,47.84626,-54.09684
2019-09-11 08:10:00+00:00,279.438,15.4,12.73,47.84626,-54.09684
2019-09-11 08:20:00+00:00,284.1331,15.4,12.81,47.84626,-54.09684
2019-09-11 08:30:00+00:00,286.8197,15.4,12.81,47.84626,-54.09684
2019-09-11 08:40:00+00:00,288.4864,15.4,12.81,47.84626,-54.09684
2019-09-11 08:50:00+00:00,293.8514,15.4,12.81,47.84626,-54.09684
2019-09-11 09:00:00+00:00,301.2414,15.4,12.73,47.84626,-54.09684
2019-09-11 09:10:00+00:00,303.4664,15.4,12.73,47.84626,-54.09684
2019-09-11 09:20:00+00:00,303.0897,15.4,12.81,47.84626,-54.09684
2019-09-11 09:30:00+00:00,306.1396,15.4,12.81,47.84626,-54.09684
2019-09-11 09:40:00+00:00,309.4713,15.4,12.81,47.84626,-54.09684
2019-09-11 09:50:00+00:00,306.9246,15.39,12.81,47.84626,-54.09684
2019-09-11 10:00:00+00:00,304.993,15.38,12.81,47.84626,-54.09684
2019-09-11 10:10:00+00:00,308.2947,15.33,12.81,47.84626,-54.09684
2019-09-11 10:20:00+00:00,308.233,15.32,12.89,47.84626,-54.09684
2019-09-11 10:30:00+00:00,304.923,15.3,12.89,47.84626,-54.09684
2019-09-11 10:40:00+00:00,307.4413,15.29,12.97,47.84626,-54.09684
2019-09-11 10:50:00+00:00,309.5346,15.28,12.97,47.84626,-54.09684
2019-09-11 11:00:00+00:00,305.848,15.3,12.97,47.84626,-54.09684
2019-09-11 11:10:00+00:00,302.373,15.3,12.81,47.84626,-54.09684
2019-09-11 11:20:00+00:00,300.4965,15.27,12.97,47.84626,-54.09684
2019-09-11 11:30:00+00:00,300.973,15.26,13.05,47.84626,-54.09684
2019-09-11 11:40:00+00:00,293.283,15.2,13.13,47.84626,-54.09684
2019-09-11 11:50:00+00:00,287.978,15.2,13.21,47.84626,-54.09684
2019-09-11 12:00:00+00:00,288.5281,15.19,13.29,47.84626,-54.09684
2019-09-11 12:10:00+00:00,285.7164,15.2,13.44,47.84626,-54.09684
2019-09-11 12:20:00+00:00,276.5214,15.2,13.68,47.84626,-54.09684
2019-09-11 12:30:00+00:00,272.3431,15.19,13.68,47.84626,-54.09684
2019-09-11 12:40:00+00:00,270.8348,15.2,13.68,47.84626,-54.09684
2019-09-11 12:50:00+00:00,264.1048,15.19,13.68,47.84626,-54.09684
2019-09-11 13:00:00+00:00,253.998,15.19,13.68,47.84626,-54.09684
2019-09-11 13:10:00+00:00,249.173,15.2,13.68,47.84626,-54.09684
2019-09-11 13:20:00+00:00,245.5264,15.2,13.84,47.84626,-54.09684
2019-09-11 13:30:00+00:00,235.9614,15.26,13.84,47.84626,-54.09684
2019-09-11 13:40:00+00:00,228.568,15.3,13.92,47.84626,-54.09684
2019-09-11 13:50:00+00:00,226.6664,15.3,14.56,47.84626,-54.09684
2019-09-11 14:00:00+00:00,224.8964,15.3,14.48,47.84626,-54.09684
2019-09-11 14:10:00+00:00,215.6081,15.33,14.56,47.84626,-54.09684
2019-09-11 14:20:00+00:00,211.1398,15.37,14.8,47.84626,-54.09684
2019-09-11 14:30:00+00:00,210.2097,15.38,14.4,47.84626,-54.09684
2019-09-11 14:40:00+00:00,205.2264,15.39,14.4,47.84626,-54.09684
2019-09-11 14:50:00+00:00,198.9081,15.46,14.48,47.84626,-54.09684
2019-09-11 15:00:00+00:00,198.5131,15.5,14.56,47.84626,-54.09684
2019-09-11 15:10:00+00:00,197.8748,15.5,14.4,47.84626,-54.09684
2019-09-11 15:20:00+00:00,194.6448,15.5,14.64,47.84626,-54.09684
2019-09-11 15:30:00+00:00,194.1048,15.5,14.48,47.84626,-54.09684
2019-09-11 15:40:00+00:00,192.0948,15.5,14.56,47.84626,-54.09684
2019-09-11 15:50:00+00:00,187.9681,15.5,14.48,47.84626,-54.09684
2019-09-11 16:00:00+00:00,190.2081,15.5,14.32,47.84626,-54.09684
2019-09-11 16:10:00+00:00,194.0248,15.49,14.32,47.84626,-54.09684
2019-09-11 16:20:00+00:00,193.5648,15.49,14.48,47.84626,-54.09684
2019-09-11 16:30:00+00:00,194.2798,15.5,14.4,47.84626,-54.09684
2019-09-11 16:40:00+00:00,199.7598,15.5,14.32,47.84626,-54.09684
2019-09-11 16:50:00+00:00,204.3498,15.5,14.24,47.84626,-54.09684
2019-09-11 17:00:00+00:00,207.0431,15.5,14.24,47.84626,-54.09684
2019-09-11 17:10:00+00:00,211.8214,15.57,14.16,47.84626,-54.09684
2019-09-11 17:20:00+00:00,213.6048,15.6,14.24,47.84626,-54.09684
2019-09-11 17:30:00+00:00,214.0164,15.61,14.16,47.84626,-54.09684
2019-09-11 17:40:00+00:00,218.8198,15.65,14.16,47.84626,-54.09684
2019-09-11 17:50:00+00:00,222.4781,15.67,14.16,47.84626,-54.09684
2019-09-11 18:00:00+00:00,223.4281,15.69,14.08,47.84626,-54.09684
2019-09-11 18:10:00+00:00,228.3264,15.69,14.0,47.84626,-54.09684
2019-09-11 18:20:00+00:00,236.1447,15.6,14.08,47.84626,-54.09684
2019-09-11 18:30:00+00:00,240.1147,15.6,14.08,47.84626,-54.09684
2019-09-11 18:40:00+00:00,243.8331,15.59,14.16,47.84626,-54.09684
2019-09-11 18:50:00+00:00,250.4948,15.59,14.08,47.84626,-54.09684
2019-09-11 19:00:00+00:00,255.7814,15.58,14.0,47.84626,-54.09684
2019-09-11 19:10:00+00:00,255.8114,15.59,13.84,47.84626,-54.09684
2019-09-11 19:20:00+00:00,257.8181,15.6,13.84,47.84626,-54.09684
2019-09-11 19:30:00+00:00,264.5314,15.6,13.92,47.84626,-54.09684
2019-09-11 19:40:00+00:00,274.7848,15.6,13.92,47.84626,-54.09684
2019-09-11 19:50:00+00:00,278.8665,15.55,14.0,47.84626,-54.09684
2019-09-11 20:00:00+00:00,282.9581,15.55,13.92,47.84626,-54.09684
2019-09-11 20:10:00+00:00,290.9814,15.56,13.84,47.84626,-54.09684
2019-09-11 20:20:00+00:00,301.0147,15.52,13.84,47.84626,-54.09684
2019-09-11 20:30:00+00:00,304.5947,15.53,13.84,47.84626,-54.09684
2019-09-11 20:40:00+00:00,308.5013,15.56,13.76,47.84626,-54.09684
2019-09-11 20:50:00+00:00,314.3746,15.55,13.68,47.84626,-54.09684
2019-09-11 21:00:00+00:00,320.1013,15.59,13.6,47.84626,-54.09684
2019-09-11 21:10:00+00:00,320.9364,15.6,13.44,47.84626,-54.09684
2019-09-11 21:20:00+00:00,324.1096,15.6,13.44,47.84626,-54.09684
2019-09-11 21:30:00+00:00,327.4746,15.6,13.37,47.84626,-54.09684
2019-09-11 21:40:00+00:00,332.4647,15.6,13.37,47.84626,-54.09684
2019-09-11 21:50:00+00:00,336.5779,15.6,13.29,47.84626,-54.09684
2019-09-11 22:00:00+00:00,340.1796,15.6,13.21,47.84626,-54.09684
2019-09-11 22:10:00+00:00,340.2112,15.6,13.05,47.84626,-54.09684
2019-09-11 22:20:00+00:00,339.9263,15.6,13.05,47.84626,-54.09684
2019-09-11 22:30:00+00:00,345.8663,15.6,13.05,47.84626,-54.09684
2019-09-11 22:40:00+00:00,348.368,15.6,13.05,47.84626,-54.09684
2019-09-11 22:50:00+00:00,346.6979,15.6,13.05,47.84626,-54.09684
2019-09-11 23:00:00+00:00,345.2313,15.6,12.97,47.84626,-54.09684
2019-09-11 23:10:00+00:00,349.4497,15.6,12.89,47.84626,-54.09684
2019-09-11 23:20:00+00:00,348.3213,15.6,12.97,47.84626,-54.09684
2019-09-11 23:30:00+00:00,338.6713,15.59,12.97,47.84626,-54.09684
2019-09-11 23:40:00+00:00,337.068,15.59,12.97,47.84626,-54.09684
2019-09-11 23:50:00+00:00,340.8862,15.59,12.97,47.84626,-54.09684
